Location: Bodest
(46.3000°N, 22.5667°E)
Time: 21:53:38
(UTC+00:00)

Cosmos 2150 Rocket - Pass Details

Date: 16 October 2021
Orbit: 750 x 807 km, 74.0° (Epoch: 29 November)

Event Time Altitude Azimuth Distance (km) Brightness Sun altitude
Rises 16:32:30 0° 192° (SSW) 3,306 7.5 -9.6°
Reaches altitude 10° 16:34:55 10° 190° (S) 2,377 6.7 -10.0°
Maximum altitude 16:40:17 68° 108° (ESE) 861 4.1 -10.9°
Drops below altitude 10° 16:45:39 10° 26° (NNE) 2,368 6.3 -11.8°
Sets 16:48:03 0° 24° (NNE) 3,293 7.0 -12.3°
